Temperature
19 19 18 18 18 18 17 17 17 17 16 16 16 16 15 15 15 15 15 15 15 15 15 15 15 15 15 15 15 14 14 14 14 15 15 14 14 14 14 14 14 14 14
19 19 18 18 18 18 17 17 17 17 16 16 16 16 16 15 15 15 15 15 15 15 15 15 15 15 15 14 14 14 14 14 14 15 15 15 15 14 14 14 14 14 14
20 19 19 19 18 18 18 18 17 17 17 17 16 16 16 16 15 15 15 15 15 15 15 15 15 15 14 14 14 14 14 14 14 14 15 16 16 15 14 14 14 13 13
20 20 19 19 19 18 18 18 17 17 17 17 16 16 16 16 15 15 15 15 15 15 15 15 15 15 14 14 14 14 14 14 14 14 14 14 14 15 15 14 13 13 13
20 20 19 19 19 19 18 18 17 17 17 17 17 16 16 16 16 15 15 15 15 15 15 15 15 15 14 14 14 14 14 14 14 14 13 13 14 14 14 14 13 13 13
20 20 19 19 19 19 18 18 18 17 17 17 17 16 16 16 16 16 15 15 15 15 15 15 15 14 14 14 14 14 14 14 14 13 13 13 13 13 13 14 13 13 13
21 20 20 19 19 19 19 18 18 18 17 17 17 17 16 16 16 16 15 15 15 15 15 15 15 14 14 14 14 14 14 14 14 13 13 13 13 13 13 13 13 13 13
21 21 20 20 19 19 19 19 18 18 18 17 17 17 17 16 16 16 15 15 15 15 15 15 14 14 14 14 14 14 13 13 13 13 13 13 13 12 12 12 13 13 13
21 21 20 20 20 20 19 19 19 18 18 18 17 17 17 16 16 16 16 15 15 15 15 15 14 14 14 14 14 14 13 13 13 13 13 13 12 12 12 12 12 12 13
21 21 20 20 20 20 20 19 19 18 18 18 17 17 17 17 16 16 16 16 15 15 15 15 14 14 14 14 14 13 13 13 13 13 13 12 12 12 12 12 12 12 12
21 21 20 20 20 20 20 19 19 18 18 18 17 17 17 17 16 16 16 16 15 15 15 15 14 14 14 14 13 13 13 13 12 12 12 12 12 12 12 12 12 11 11
20 20 20 20 20 20 20 19 19 19 18 18 17 17 17 17 16 16 16 16 15 15 15 15 14 14 14 13 13 13 13 13 12 12 12 12 12 12 12 11 11 11 11
20 20 20 20 20 20 20 19 19 19 18 18 18 17 17 17 16 16 16 16 15 15 15 15 14 14 14 13 13 13 13 12 12 12 12 12 12 11 11 11 11 11 11
20 19 19 20 20 20 19 19 19 19 18 18 18 17 17 17 16 16 16 16 15 15 15 14 14 14 14 13 13 13 12 12 12 12 12 12 11 11 11 11 11 11 11
19 19 19 19 19 19 19 19 19 19 18 18 18 17 17 17 16 16 16 16 15 15 15 14 14 14 13 13 13 13 12 12 12 12 12 12 12 12 11 11 11 11 11
20 19 19 19 20 19 19 19 19 19 18 18 18 17 17 16 16 16 16 15 15 15 15 14 14 14 14 14 13 13 12 12 12 12 12 11 12 12 12 11 11 11 10
19 19 19 20 20 20 19 19 19 18 18 18 17 17 17 16 16 16 16 15 15 15 15 14 14 14 14 14 13 13 12 12 12 12 11 11 11 11 11 11 11 11 11
19 19 19 19 19 19 19 19 18 18 18 17 17 17 17 16 16 16 16 15 15 15 15 14 14 14 14 14 13 13 12 12 12 12 11 11 11 11 11 10 10 10 10
19 19 19 19 19 19 19 18 18 18 17 17 17 17 17 16 16 16 15 15 15 15 14 14 14 14 13 13 13 13 12 12 11 11 11 11 11 11 11 10 10 10 10
19 19 19 19 19 19 18 18 18 17 17 17 17 16 16 16 16 15 15 15 15 14 14 14 13 13 13 13 13 12 12 11 11 11 11 11 11 11 10 10 9 9 9
19 19 19 19 19 18 18 18 17 17 17 17 16 16 16 16 15 15 15 14 14 14 14 13 13 13 13 13 12 12 12 11 11 11 10 10 11 10 10 10 9 9 9
19 19 19 19 18 18 18 17 17 17 16 16 16 16 16 15 15 15 14 14 14 13 13 13 13 12 12 12 12 12 11 11 11 10 10 10 10 10 10 10 9 9 9
18 18 18 18 18 17 17 17 16 16 16 16 16 15 15 15 14 14 14 14 13 13 12 12 12 12 12 12 11 11 11 11 10 10 10 10 10 9 9 9 9 9 8
18 18 18 17 17 17 17 16 16 15 15 15 15 15 14 14 14 14 13 13 13 12 12 12 12 11 11 11 11 11 10 10 10 10 10 10 9 9 9 9 8 8 8
17 17 17 17 17 16 16 15 15 15 15 14 14 14 14 13 13 13 13 13 12 12 12 11 11 11 11 11 11 10 10 10 10 9 9 9 9 8 8 8 8 8 7
17 16 16 16 16 15 15 15 14 14 14 14 14 13 13 13 12 12 12 12 12 11 11 11 11 10 10 10 10 10 10 9 9 9 8 8 8 8 7 7 7 7 7
Wind_Speed
8 8 8 8 8 7 7 7 7 7 6 4 3 3 3 3 3 4 5 5 6 6 6 5 6 5 4 4 4 3 4 3 2 3 4 4 5 6 5 6 6 7 8
10 9 10 9 9 9 8 8 7 7 6 4 3 2 3 3 3 3 4 5 5 6 5 6 5 5 4 4 5 3 2 3 2 1 0 2 3 4 5 5 6 6 7
11 11 11 11 10 10 9 8 8 7 7 6 4 4 3 3 3 3 3 3 4 5 5 5 5 5 4 4 4 3 3 2 2 3 3 2 2 2 3 5 5 6 6
12 11 11 12 12 11 10 9 8 7 7 7 6 5 3 2 2 2 2 3 3 4 4 4 5 5 4 4 4 4 3 2 2 2 3 4 3 2 0 2 4 5 6
13 12 12 12 11 11 10 9 9 8 7 7 6 5 3 3 3 3 3 2 3 3 3 4 4 4 4 4 4 4 4 3 3 2 2 2 1 2 2 1 2 3 4
13 13 12 11 10 10 10 9 9 8 8 8 7 6 5 4 4 4 3 2 2 2 3 2 3 3 3 4 4 3 4 3 3 3 2 2 2 2 2 2 2 2 3
13 13 13 13 12 12 11 11 11 10 9 9 8 7 6 6 5 4 3 2 2 2 2 1 2 2 3 3 3 3 3 3 3 2 2 2 2 2 2 2 2 2 2
13 13 14 13 12 12 12 12 12 11 10 10 9 8 7 5 4 4 3 2 2 2 2 1 1 2 2 2 2 2 2 2 3 3 2 2 2 2 2 3 3 3 1
13 13 13 13 13 12 13 13 12 11 11 10 9 8 7 6 5 5 4 3 2 2 2 2 2 2 1 1 1 1 2 2 2 2 2 2 2 2 2 2 3 4 3
12 12 12 12 12 11 11 11 12 11 11 10 9 7 7 6 5 5 4 4 3 3 3 2 2 2 2 1 1 0 1 1 1 1 2 2 2 2 2 2 3 3 3
10 11 11 11 11 10 10 11 11 11 10 10 9 8 7 7 6 5 5 4 4 4 4 3 3 2 2 1 1 0 0 0 0 0 1 1 2 2 2 2 2 2 2
9 10 10 11 10 10 10 11 11 10 10 9 9 8 7 7 7 6 5 5 4 4 4 4 3 3 2 2 1 1 1 1 1 1 1 1 1 2 2 2 2 2 3
8 9 10 10 10 10 10 10 10 10 9 9 9 9 8 7 7 6 6 5 5 4 4 4 4 3 3 3 2 2 2 1 1 1 1 1 1 2 1 2 2 2 2
8 9 9 10 9 10 10 10 10 9 10 9 9 9 8 8 7 6 6 6 5 5 5 5 4 4 4 3 3 3 2 2 2 2 2 2 2 3 2 2 3 3 3
7 9 9 9 9 9 9 9 9 9 10 10 10 9 8 7 7 7 6 6 5 5 5 5 5 4 4 3 3 3 3 3 3 3 3 2 2 4 4 4 4 4 4
7 8 9 9 9 10 10 9 9 9 10 10 10 9 8 8 7 7 7 6 5 5 5 5 5 5 4 2 3 5 4 4 4 4 4 3 3 3 3 4 5 6 5
6 7 8 9 9 9 10 10 9 9 9 9 9 8 8 8 8 7 7 7 6 6 6 6 6 6 5 5 5 6 6 5 5 5 4 4 3 5 4 5 7 6 6
5 6 6 7 8 8 8 8 9 9 9 9 9 8 9 9 8 7 7 7 6 6 6 6 6 5 4 6 6 7 7 6 6 6 6 6 6 5 6 6 6 6 5
3 4 5 5 7 7 8 8 8 8 8 8 8 8 9 8 8 8 8 7 6 6 6 6 6 6 5 6 6 8 6 6 7 6 6 7 7 3 6 8 8 7 6
2 3 4 5 6 7 8 8 8 8 8 7 7 7 8 8 8 8 7 6 6 6 5 5 6 6 5 5 7 9 6 6 6 6 6 5 6 4 6 9 9 9 8
3 4 4 4 5 6 8 8 7 7 6 6 6 6 7 7 7 6 6 6 5 5 5 5 5 5 5 5 7 7 6 6 6 6 6 5 4 6 8 10 10 9 10
4 4 5 4 4 5 7 7 6 5 5 5 5 5 6 5 5 5 5 5 5 5 5 5 5 4 4 4 5 7 8 8 7 7 6 5 3 7 9 9 8 10 11
4 4 5 5 4 4 5 5 5 4 5 5 5 5 5 5 5 5 5 5 5 4 4 4 4 4 3 3 5 7 8 8 8 7 6 6 6 8 9 9 10 10 9
4 4 4 5 4 4 4 3 4 4 5 5 5 4 5 4 4 4 4 4 4 4 4 4 4 3 3 3 3 4 5 6 7 7 6 8 9 9 9 9 8 8 8
4 4 4 4 4 4 3 3 3 4 5 5 4 4 4 4 4 3 2 3 3 3 3 3 3 3 4 2 2 4 5 5 5 6 6 7 6 7 7 7 7 7 7
4 4 4 4 3 4 3 3 3 4 5 4 4 3 3 3 3 3 3 1 0 1 1 2 3 3 3 3 2 4 5 5 5 5 6 7 7 7 7 7 7 7 7
Wind_Direction
186 181 180 177 177 177 174 166 168 165 162 156 153 137 113 99 84 68 60 53 46 43 46 42 45 37 51 50 62 74 83 71 60 95 95 89 70 60 54 42 43 47 39
190 187 188 186 188 184 183 179 177 176 175 168 156 136 117 108 92 81 68 54 50 45 45 49 55 53 58 57 56 56 58 69 26 13 74 126 116 65 54 49 41 38 39
197 190 192 191 191 190 189 187 184 179 180 173 158 144 136 145 132 107 78 56 53 50 44 48 51 52 54 58 49 46 40 51 51 23 349 343 37 74 66 45 43 36 29
204 196 194 194 194 193 191 190 185 183 179 178 184 181 177 153 128 112 102 89 69 60 52 56 53 55 55 59 55 51 38 17 39 51 25 16 15 321 79 76 45 33 30
205 201 200 197 195 190 188 190 184 184 183 186 186 194 183 158 141 134 124 108 88 69 58 55 57 57 59 57 54 50 39 40 26 30 35 41 30 337 330 359 15 34 33
205 205 201 195 192 188 186 187 187 186 187 190 191 194 183 173 161 161 151 140 118 97 78 64 68 64 61 61 55 55 56 46 44 30 27 14 15 9 354 334 348 12 26
199 199 196 194 191 189 189 189 189 189 190 194 196 194 191 186 184 181 171 168 139 121 101 88 76 73 70 66 55 55 49 55 51 38 33 29 24 7 345 328 339 339 345
196 196 194 194 192 191 191 192 193 194 191 195 195 194 191 194 190 193 190 181 160 133 122 124 100 89 85 80 68 44 49 46 51 46 36 25 22 3 353 341 325 319 327
194 195 194 193 192 191 192 193 194 193 192 194 193 193 192 194 194 194 194 186 180 160 160 157 145 134 117 82 70 48 54 45 32 31 35 18 22 353 348 334 319 312 313
192 193 192 192 192 191 190 192 195 194 192 193 193 193 195 194 196 199 194 189 185 179 185 184 176 164 151 141 108 68 38 51 52 5 3 3 356 357 341 327 323 316 312
191 189 188 189 187 185 185 188 191 192 191 194 194 192 192 194 194 198 197 197 196 193 198 198 201 194 188 172 154 196 156 287 356 324 349 351 350 338 336 329 321 318 311
187 184 182 180 181 183 186 188 189 190 190 191 192 193 190 193 197 198 200 199 197 199 203 200 205 204 209 204 201 216 220 256 303 324 323 327 355 334 330 324 318 320 308
179 179 180 181 182 184 185 187 189 189 185 185 189 190 191 193 198 200 198 199 199 197 197 201 209 209 214 216 217 224 236 244 271 295 301 308 311 307 325 310 314 314 313
177 180 182 184 184 185 186 186 188 187 183 183 189 194 195 194 197 195 194 198 201 202 203 204 209 215 215 217 221 229 238 242 251 267 281 291 296 303 307 301 305 305 300
177 183 184 184 185 187 188 188 187 186 186 187 193 197 197 195 195 191 192 193 196 207 209 208 209 215 219 222 232 235 243 246 250 253 258 275 316 336 318 307 303 298 294
182 184 187 187 189 190 191 188 188 188 189 193 197 194 195 193 195 195 195 194 196 206 206 211 213 216 217 187 245 263 249 251 253 258 258 245 240 242 251 280 299 304 295
190 190 191 192 193 193 191 188 189 186 190 195 195 191 193 196 200 197 196 198 200 203 208 214 216 221 209 192 216 246 256 255 260 264 263 262 259 253 260 241 231 245 254
197 196 197 194 194 191 186 183 180 184 189 193 193 191 193 196 198 198 201 207 208 203 209 214 218 223 217 200 216 233 244 250 253 258 264 262 263 267 279 275 272 273 269
198 196 196 190 187 184 181 177 179 183 187 192 194 193 194 194 194 198 202 206 207 207 210 215 217 221 218 199 213 235 243 250 254 257 262 266 264 264 277 272 274 274 272
162 165 166 170 172 173 172 174 177 182 190 194 195 192 192 193 196 199 201 201 205 212 214 217 222 227 234 195 211 239 246 253 258 260 258 252 267 271 266 268 273 276 281
129 140 145 148 156 160 166 174 178 188 192 189 187 186 187 192 196 196 196 197 200 208 215 219 226 234 240 205 207 233 251 258 263 265 264 258 226 257 263 268 273 283 289
122 132 136 132 137 153 165 171 179 184 176 174 178 182 181 181 185 189 193 196 197 205 214 222 227 234 232 230 212 224 248 273 269 271 272 271 233 253 262 264 272 279 278
130 135 136 130 131 149 166 171 172 167 163 165 172 176 174 176 181 185 188 191 197 210 218 222 232 237 242 225 208 225 239 253 263 273 285 285 270 261 258 251 258 264 267
141 142 142 138 134 143 160 171 160 161 163 165 169 171 171 171 175 182 190 193 198 212 221 228 238 246 247 256 257 255 252 245 254 268 265 251 253 256 267 269 258 260 266
151 152 152 146 144 144 150 156 156 163 169 168 166 169 168 167 171 173 191 204 203 222 231 236 244 255 260 279 299 278 268 268 273 280 273 272 272 270 269 269 270 270 269
153 151 148 150 152 150 146 147 155 164 170 169 167 168 168 170 174 174 170 78 278 125 239 297 287 269 298 325 287 279 282 280 272 270 270 273 274 277 279 281 280 276 276
Height
1566 1568 1570 1572 1573 1574 1576 1577 1578 1578 1579 1580 1580 1580 1580 1580 1579 1579 1578 1577 1576 1575 1574 1573 1572 1571 1570 1569 1569 1568 1567 1567 1566 1567 1566 1566 1565 1564 1563 1563 1562 1560 1559
1565 1567 1569 1570 1572 1574 1575 1577 1578 1578 1579 1579 1580 1580 1581 1580 1580 1579 1578 1578 1577 1576 1575 1574 1573 1572 1571 1570 1570 1569 1569 1568 1567 1568 1568 1567 1568 1566 1565 1564 1562 1561 1560
1562 1565 1567 1569 1571 1573 1574 1576 1577 1578 1578 1579 1580 1580 1580 1581 1580 1580 1579 1578 1578 1577 1576 1575 1574 1573 1573 1572 1570 1570 1569 1569 1568 1568 1569 1568 1567 1567 1567 1565 1563 1561 1560
1560 1562 1565 1567 1569 1571 1573 1575 1576 1577 1578 1579 1580 1581 1581 1581 1581 1580 1580 1579 1578 1577 1577 1576 1575 1574 1573 1572 1572 1571 1570 1569 1569 1568 1568 1568 1568 1568 1567 1566 1564 1562 1561
1556 1559 1562 1564 1567 1569 1571 1573 1575 1576 1577 1578 1579 1580 1581 1581 1581 1580 1580 1580 1579 1578 1577 1576 1576 1575 1574 1573 1572 1571 1570 1570 1570 1569 1569 1568 1567 1568 1567 1566 1565 1563 1561
1553 1556 1559 1562 1565 1567 1569 1571 1573 1575 1576 1577 1578 1579 1580 1580 1580 1580 1580 1580 1579 1579 1578 1577 1576 1576 1575 1574 1573 1572 1571 1570 1569 1569 1569 1569 1568 1568 1567 1566 1565 1564 1562
1549 1553 1556 1559 1562 1564 1567 1569 1571 1573 1574 1576 1577 1578 1579 1579 1580 1580 1580 1580 1580 1579 1578 1577 1577 1576 1575 1574 1573 1573 1572 1571 1570 1569 1569 1568 1568 1567 1567 1566 1565 1563 1562
1546 1549 1552 1556 1559 1562 1564 1567 1569 1571 1572 1574 1576 1577 1578 1578 1579 1579 1579 1579 1579 1579 1578 1577 1577 1576 1575 1575 1574 1573 1572 1572 1571 1570 1569 1568 1568 1567 1566 1566 1565 1564 1562
1543 1546 1549 1553 1556 1559 1561 1564 1567 1569 1570 1572 1574 1575 1576 1577 1578 1578 1578 1578 1578 1578 1577 1577 1577 1576 1575 1574 1574 1573 1573 1572 1571 1570 1569 1569 1568 1566 1566 1565 1564 1564 1562
1540 1543 1546 1550 1553 1556 1559 1562 1564 1566 1568 1570 1572 1573 1574 1575 1576 1577 1577 1577 1577 1577 1577 1577 1576 1576 1575 1574 1573 1573 1572 1572 1571 1569 1569 1568 1568 1566 1565 1564 1563 1562 1562
1537 1540 1543 1547 1550 1553 1556 1559 1561 1564 1566 1568 1570 1571 1572 1573 1574 1575 1575 1576 1576 1576 1576 1576 1576 1575 1574 1574 1573 1572 1572 1571 1571 1570 1569 1568 1566 1566 1565 1563 1562 1561 1561
1535 1538 1541 1544 1547 1550 1553 1556 1558 1561 1563 1565 1567 1569 1570 1571 1572 1573 1574 1574 1574 1574 1575 1575 1574 1574 1573 1573 1572 1571 1571 1570 1570 1569 1568 1567 1566 1565 1564 1563 1562 1560 1559
1534 1536 1539 1542 1545 1547 1550 1553 1556 1558 1560 1562 1564 1566 1568 1569 1570 1571 1572 1572 1573 1573 1573 1573 1573 1572 1572 1572 1571 1571 1570 1569 1569 1568 1567 1566 1565 1564 1563 1562 1561 1560 1558
1532 1534 1536 1539 1542 1545 1547 1550 1553 1555 1557 1559 1561 1563 1565 1566 1568 1569 1569 1570 1571 1571 1571 1571 1571 1571 1570 1570 1570 1569 1569 1568 1568 1567 1566 1565 1564 1563 1562 1561 1560 1558 1557
1530 1532 1534 1536 1539 1542 1544 1547 1549 1552 1554 1556 1558 1560 1562 1564 1565 1566 1567 1568 1568 1569 1569 1569 1569 1569 1569 1568 1568 1568 1567 1567 1566 1565 1564 1563 1562 1561 1560 1559 1558 1557 1556
1528 1530 1532 1534 1536 1539 1541 1544 1546 1548 1551 1553 1555 1557 1559 1561 1562 1563 1564 1565 1566 1566 1567 1567 1567 1567 1566 1566 1566 1566 1565 1565 1564 1564 1563 1562 1560 1559 1558 1557 1556 1555 1554
1526 1528 1530 1531 1534 1536 1538 1540 1542 1545 1547 1549 1551 1553 1555 1557 1559 1560 1561 1562 1563 1563 1564 1564 1564 1564 1564 1563 1563 1563 1563 1563 1562 1562 1561 1559 1558 1557 1556 1555 1553 1552 1550
1524 1526 1528 1530 1532 1534 1536 1538 1540 1542 1544 1546 1548 1549 1551 1553 1555 1557 1558 1559 1560 1560 1561 1561 1561 1561 1561 1561 1560 1560 1560 1560 1559 1558 1558 1557 1556 1554 1553 1552 1551 1550 1548
1522 1524 1525 1527 1529 1531 1533 1535 1537 1538 1540 1542 1544 1546 1548 1550 1551 1553 1554 1556 1557 1557 1558 1558 1558 1558 1558 1558 1558 1557 1557 1557 1556 1555 1554 1553 1553 1551 1550 1549 1548 1546 1545
1520 1522 1523 1525 1527 1528 1530 1532 1534 1535 1537 1539 1541 1543 1544 1546 1548 1549 1551 1552 1553 1554 1554 1555 1555 1555 1555 1555 1554 1554 1554 1554 1553 1552 1550 1549 1548 1547 1546 1545 1544 1543 1541
1519 1520 1522 1523 1524 1526 1528 1530 1531 1533 1535 1536 1538 1540 1541 1543 1544 1546 1548 1549 1550 1551 1551 1551 1551 1551 1551 1551 1551 1550 1550 1550 1549 1548 1547 1545 1544 1543 1542 1541 1540 1538 1537
1519 1520 1521 1522 1523 1524 1526 1527 1529 1531 1532 1534 1535 1537 1538 1540 1541 1543 1544 1545 1546 1547 1547 1547 1547 1547 1547 1547 1546 1546 1546 1546 1545 1544 1543 1541 1540 1538 1537 1536 1534 1533 1532
1518 1519 1520 1521 1522 1523 1524 1526 1527 1529 1530 1531 1533 1534 1536 1537 1538 1539 1540 1542 1542 1543 1544 1544 1544 1543 1543 1543 1542 1542 1542 1541 1540 1539 1538 1536 1535 1534 1532 1530 1529 1528 1527
1518 1518 1519 1520 1521 1521 1522 1524 1525 1526 1528 1529 1530 1532 1533 1534 1535 1536 1537 1538 1539 1539 1540 1540 1540 1539 1539 1539 1538 1537 1537 1536 1535 1534 1533 1531 1530 1528 1527 1525 1524 1523 1521
1516 1517 1518 1518 1519 1520 1521 1522 1523 1524 1525 1527 1528 1529 1530 1531 1532 1533 1533 1534 1535 1535 1536 1536 1536 1536 1535 1534 1534 1533 1532 1531 1531 1529 1528 1526 1525 1524 1522 1521 1519 1517 1516
1514 1515 1516 1516 1517 1518 1519 1519 1520 1522 1523 1524 1525 1526 1527 1528 1529 1529 1530 1530 1531 1531 1532 1532 1532 1531 1531 1530 1529 1528 1528 1527 1526 1525 1523 1522 1520 1519 1517 1516 1514 1512 1510